Information on these data can be found in provided Readme document
Contact Info: Zachary Fasnacht (zachary.fasnacht@ssaihq.com); Nickolay Krotkov (nickolay.a.krotkov@nasa.gov); Lok Lamsal (lok.lamsal@nasa.gov)

FillValue: -999.
ScaleFactor: 1e15
Units: molecules/cm^2

Date(yyyy-mm-dd),City,Country,LonCenter,LatCenter,BoundingCoordinates,Median,Q1,Q3,Mean,Baseline_Median,Baseline_Q1,Baseline_Q3,Baseline_Mean,NumGoodSamples,NumTotalSamples
2015-01-01,Memphis,USA,-90.049,35.1495,[-90.549 34.6495 -89.549 35.6495],4.264,2.563,5.387,3.922,2.859,1.553,3.887,2.825,112.0,568.0
2015-01-02,Memphis,USA,-90.049,35.1495,[-90.549 34.6495 -89.549 35.6495],4.461,3.523,5.465,4.288,2.686,1.671,3.727,2.747,92.0,566.0
2015-01-03,Memphis,USA,-90.049,35.1495,[-90.549 34.6495 -89.549 35.6495],4.461,3.327,5.416,4.252,2.698,1.641,3.755,2.726,119.0,567.0
2015-01-04,Memphis,USA,-90.049,35.1495,[-90.549 34.6495 -89.549 35.6495],4.461,3.327,5.416,4.252,2.773,1.734,3.934,2.826,119.0,573.0
2015-01-05,Memphis,USA,-90.049,35.1495,[-90.549 34.6495 -89.549 35.6495],4.461,3.327,5.416,4.252,2.971,1.925,3.914,2.945,119.0,558.0
2015-01-06,Memphis,USA,-90.049,35.1495,[-90.549 34.6495 -89.549 35.6495],4.461,3.327,5.416,4.252,3.381,2.277,4.251,3.236,119.0,560.0
2015-01-07,Memphis,USA,-90.049,35.1495,[-90.549 34.6495 -89.549 35.6495],4.851,3.865,5.69,4.723,3.692,2.612,4.523,3.549,155.0,553.0
2015-01-08,Memphis,USA,-90.049,35.1495,[-90.549 34.6495 -89.549 35.6495],4.989,3.864,5.69,4.743,3.782,2.724,4.627,3.721,133.0,562.0
2015-01-09,Memphis,USA,-90.049,35.1495,[-90.549 34.6495 -89.549 35.6495],4.989,3.864,5.69,4.743,3.907,2.824,4.714,3.868,133.0,523.0
2015-01-10,Memphis,USA,-90.049,35.1495,[-90.549 34.6495 -89.549 35.6495],4.772,3.23,5.56,4.47,3.732,2.619,4.525,3.666,162.0,532.0
2015-01-11,Memphis,USA,-90.049,35.1495,[-90.549 34.6495 -89.549 35.6495],4.772,3.23,5.56,4.47,3.735,2.636,4.579,3.685,162.0,533.0
2015-01-12,Memphis,USA,-90.049,35.1495,[-90.549 34.6495 -89.549 35.6495],4.772,3.516,5.69,4.538,3.751,2.715,4.63,3.739,173.0,523.0
2015-01-13,Memphis,USA,-90.049,35.1495,[-90.549 34.6495 -89.549 35.6495],4.424,2.75,6.364,4.443,3.641,2.494,4.751,3.694,143.0,528.0
2015-01-14,Memphis,USA,-90.049,35.1495,[-90.549 34.6495 -89.549 35.6495],4.407,3.126,6.626,4.564,3.512,2.62,4.764,3.634,159.0,517.0
2015-01-15,Memphis,USA,-90.049,35.1495,[-90.549 34.6495 -89.549 35.6495],4.772,3.158,6.722,4.732,3.564,2.212,4.865,3.503,150.0,524.0
2015-01-16,Memphis,USA,-90.049,35.1495,[-90.549 34.6495 -89.549 35.6495],4.781,3.158,6.924,4.78,3.538,2.19,4.873,3.486,127.0,520.0
2015-01-17,Memphis,USA,-90.049,35.1495,[-90.549 34.6495 -89.549 35.6495],4.772,3.24,6.722,4.764,3.463,2.099,5.072,3.6,141.0,531.0
2015-01-18,Memphis,USA,-90.049,35.1495,[-90.549 34.6495 -89.549 35.6495],4.772,3.623,6.924,4.882,3.494,2.373,5.302,3.788,114.0,527.0
2015-01-19,Memphis,USA,-90.049,35.1495,[-90.549 34.6495 -89.549 35.6495],4.4,2.84,6.722,4.549,3.455,2.211,5.218,3.717,142.0,526.0
2015-01-20,Memphis,USA,-90.049,35.1495,[-90.549 34.6495 -89.549 35.6495],4.4,2.84,6.722,4.549,3.482,2.24,5.282,3.755,142.0,527.0
2015-01-21,Memphis,USA,-90.049,35.1495,[-90.549 34.6495 -89.549 35.6495],4.294,2.693,6.458,4.364,3.238,2.185,4.581,3.489,164.0,511.0
2015-01-22,Memphis,USA,-90.049,35.1495,[-90.549 34.6495 -89.549 35.6495],3.18,1.937,4.426,3.547,2.919,1.974,4.206,3.365,128.0,515.0
2015-01-23,Memphis,USA,-90.049,35.1495,[-90.549 34.6495 -89.549 35.6495],3.37,2.31,4.11,3.446,2.931,2.012,3.838,3.165,163.0,510.0
2015-01-24,Memphis,USA,-90.049,35.1495,[-90.549 34.6495 -89.549 35.6495],3.37,2.31,4.11,3.446,2.914,1.966,3.854,3.128,163.0,556.0
2015-01-25,Memphis,USA,-90.049,35.1495,[-90.549 34.6495 -89.549 35.6495],3.502,2.497,4.32,3.639,2.987,2.011,4.005,3.226,134.0,553.0
2015-01-26,Memphis,USA,-90.049,35.1495,[-90.549 34.6495 -89.549 35.6495],3.48,2.497,4.32,3.67,2.965,2.021,3.976,3.206,160.0,560.0
2015-01-27,Memphis,USA,-90.049,35.1495,[-90.549 34.6495 -89.549 35.6495],3.425,2.476,4.294,3.529,2.933,2.047,3.933,3.169,149.0,559.0
2015-01-28,Memphis,USA,-90.049,35.1495,[-90.549 34.6495 -89.549 35.6495],3.41,2.435,4.32,3.559,2.929,2.023,3.917,3.157,160.0,548.0
2015-01-29,Memphis,USA,-90.049,35.1495,[-90.549 34.6495 -89.549 35.6495],3.236,2.331,4.019,3.274,2.944,2.025,3.897,3.169,144.0,550.0
2015-01-30,Memphis,USA,-90.049,35.1495,[-90.549 34.6495 -89.549 35.6495],3.372,2.458,4.11,3.484,3.021,2.123,4.02,3.304,173.0,541.0
2015-01-31,Memphis,USA,-90.049,35.1495,[-90.549 34.6495 -89.549 35.6495],3.372,2.458,4.11,3.484,3.009,2.116,4.006,3.29,173.0,548.0
2015-02-01,Memphis,USA,-90.049,35.1495,[-90.549 34.6495 -89.549 35.6495],3.372,2.442,4.26,3.507,3.058,2.199,4.127,3.331,151.0,544.0
2015-02-02,Memphis,USA,-90.049,35.1495,[-90.549 34.6495 -89.549 35.6495],3.372,2.442,4.26,3.502,2.92,2.145,4.006,3.224,152.0,555.0
2015-02-03,Memphis,USA,-90.049,35.1495,[-90.549 34.6495 -89.549 35.6495],3.425,2.569,4.26,3.525,2.918,2.108,4.049,3.223,132.0,551.0
2015-02-04,Memphis,USA,-90.049,35.1495,[-90.549 34.6495 -89.549 35.6495],3.502,2.569,4.522,3.734,2.867,2.042,3.877,3.17,160.0,555.0
2015-02-05,Memphis,USA,-90.049,35.1495,[-90.549 34.6495 -89.549 35.6495],3.506,2.636,4.522,3.8,2.855,1.967,3.899,3.147,138.0,559.0
2015-02-06,Memphis,USA,-90.049,35.1495,[-90.549 34.6495 -89.549 35.6495],3.554,2.636,4.663,3.918,2.921,1.998,3.936,3.105,145.0,545.0
2015-02-07,Memphis,USA,-90.049,35.1495,[-90.549 34.6495 -89.549 35.6495],3.882,2.569,5.753,4.23,2.938,1.937,4.074,3.086,110.0,548.0
2015-02-08,Memphis,USA,-90.049,35.1495,[-90.549 34.6495 -89.549 35.6495],3.442,2.064,5.715,3.787,2.867,1.9,4.185,3.053,120.0,543.0
2015-02-09,Memphis,USA,-90.049,35.1495,[-90.549 34.6495 -89.549 35.6495],3.442,2.064,5.715,3.787,2.848,1.868,4.163,3.008,120.0,554.0
2015-02-10,Memphis,USA,-90.049,35.1495,[-90.549 34.6495 -89.549 35.6495],3.457,2.013,5.715,3.766,2.862,1.859,4.153,2.997,94.0,516.0
2015-02-11,Memphis,USA,-90.049,35.1495,[-90.549 34.6495 -89.549 35.6495],3.443,2.014,5.715,3.774,2.652,1.63,3.999,2.838,115.0,525.0
2015-02-12,Memphis,USA,-90.049,35.1495,[-90.549 34.6495 -89.549 35.6495],3.457,2.014,5.658,3.759,2.641,1.57,3.927,2.787,104.0,526.0
2015-02-13,Memphis,USA,-90.049,35.1495,[-90.549 34.6495 -89.549 35.6495],3.457,2.014,5.658,3.759,2.592,1.617,3.887,2.703,104.0,516.0
2015-02-14,Memphis,USA,-90.049,35.1495,[-90.549 34.6495 -89.549 35.6495],2.787,1.593,5.658,3.579,2.408,1.516,3.694,2.564,75.0,519.0
2015-02-15,Memphis,USA,-90.049,35.1495,[-90.549 34.6495 -89.549 35.6495],2.787,1.658,4.734,3.545,2.394,1.518,3.57,2.537,78.0,510.0
2015-02-16,Memphis,USA,-90.049,35.1495,[-90.549 34.6495 -89.549 35.6495],2.787,1.658,4.734,3.545,2.386,1.421,3.474,2.483,78.0,519.0
2015-02-17,Memphis,USA,-90.049,35.1495,[-90.549 34.6495 -89.549 35.6495],3.229,1.915,4.734,3.634,2.426,1.383,3.31,2.529,90.0,516.0
2015-02-18,Memphis,USA,-90.049,35.1495,[-90.549 34.6495 -89.549 35.6495],3.457,2.011,5.109,3.817,2.409,1.381,3.321,2.509,82.0,530.0
2015-02-19,Memphis,USA,-90.049,35.1495,[-90.549 34.6495 -89.549 35.6495],2.83,1.736,4.731,3.333,2.344,1.326,3.411,2.464,54.0,526.0
2015-02-20,Memphis,USA,-90.049,35.1495,[-90.549 34.6495 -89.549 35.6495],3.625,2.011,5.304,3.9,2.596,1.559,3.849,2.695,80.0,528.0
2015-02-21,Memphis,USA,-90.049,35.1495,[-90.549 34.6495 -89.549 35.6495],3.058,2.011,5.109,3.653,2.393,1.426,3.489,2.506,73.0,531.0
2015-02-22,Memphis,USA,-90.049,35.1495,[-90.549 34.6495 -89.549 35.6495],3.058,2.011,5.109,3.653,2.296,1.414,3.405,2.44,73.0,514.0
2015-02-23,Memphis,USA,-90.049,35.1495,[-90.549 34.6495 -89.549 35.6495],4.192,2.718,5.336,4.497,2.519,1.52,3.324,2.5,63.0,517.0
2015-02-24,Memphis,USA,-90.049,35.1495,[-90.549 34.6495 -89.549 35.6495],4.192,2.718,5.336,4.497,2.506,1.568,3.328,2.509,63.0,513.0
2015-02-25,Memphis,USA,-90.049,35.1495,[-90.549 34.6495 -89.549 35.6495],4.192,2.718,5.336,4.497,2.492,1.501,3.311,2.473,63.0,560.0
2015-02-26,Memphis,USA,-90.049,35.1495,[-90.549 34.6495 -89.549 35.6495],4.605,2.718,5.336,4.647,2.805,1.706,3.643,2.743,43.0,559.0
2015-02-27,Memphis,USA,-90.049,35.1495,[-90.549 34.6495 -89.549 35.6495],4.192,2.735,5.336,4.592,2.826,1.801,3.652,2.786,51.0,565.0
2015-02-28,Memphis,USA,-90.049,35.1495,[-90.549 34.6495 -89.549 35.6495],4.192,2.735,5.336,4.592,2.821,1.835,3.664,2.798,51.0,568.0
2015-03-01,Memphis,USA,-90.049,35.1495,[-90.549 34.6495 -89.549 35.6495],4.192,2.735,5.336,4.592,2.803,1.808,3.632,2.771,51.0,557.0
2015-03-02,Memphis,USA,-90.049,35.1495,[-90.549 34.6495 -89.549 35.6495],4.605,3.01,5.37,4.722,2.772,1.843,3.613,2.749,48.0,561.0
2015-03-03,Memphis,USA,-90.049,35.1495,[-90.549 34.6495 -89.549 35.6495],4.605,3.01,5.37,4.722,2.819,1.911,3.705,2.818,48.0,551.0
2015-03-04,Memphis,USA,-90.049,35.1495,[-90.549 34.6495 -89.549 35.6495],5.336,3.058,7.243,5.51,2.85,1.972,3.725,2.824,35.0,558.0
2015-03-05,Memphis,USA,-90.049,35.1495,[-90.549 34.6495 -89.549 35.6495],5.336,3.058,7.243,5.51,2.883,2.019,3.754,2.866,35.0,555.0
2015-03-06,Memphis,USA,-90.049,35.1495,[-90.549 34.6495 -89.549 35.6495],5.336,3.058,7.243,5.51,2.883,2.039,3.773,2.882,35.0,568.0
2015-03-07,Memphis,USA,-90.049,35.1495,[-90.549 34.6495 -89.549 35.6495],3.045,2.657,3.51,3.721,2.693,1.833,3.648,2.691,9.0,563.0
2015-03-08,Memphis,USA,-90.049,35.1495,[-90.549 34.6495 -89.549 35.6495],2.277,0.85,3.01,2.081,2.608,1.771,3.55,2.607,36.0,563.0
2015-03-09,Memphis,USA,-90.049,35.1495,[-90.549 34.6495 -89.549 35.6495],2.277,0.85,3.01,2.081,2.698,1.869,3.582,2.695,36.0,568.0
2015-03-10,Memphis,USA,-90.049,35.1495,[-90.549 34.6495 -89.549 35.6495],2.61,1.104,3.393,2.4,2.64,1.751,3.61,2.695,57.0,553.0
2015-03-11,Memphis,USA,-90.049,35.1495,[-90.549 34.6495 -89.549 35.6495],2.61,1.104,3.393,2.4,2.623,1.687,3.609,2.673,57.0,555.0
2015-03-12,Memphis,USA,-90.049,35.1495,[-90.549 34.6495 -89.549 35.6495],2.61,1.104,3.393,2.4,2.677,1.812,3.614,2.713,57.0,550.0
2015-03-13,Memphis,USA,-90.049,35.1495,[-90.549 34.6495 -89.549 35.6495],2.548,1.104,3.393,2.393,2.515,1.592,3.327,2.44,56.0,558.0
2015-03-14,Memphis,USA,-90.049,35.1495,[-90.549 34.6495 -89.549 35.6495],2.548,0.991,3.367,2.216,2.384,1.471,3.151,2.285,48.0,521.0
2015-03-15,Memphis,USA,-90.049,35.1495,[-90.549 34.6495 -89.549 35.6495],2.548,0.991,3.367,2.216,2.384,1.524,3.168,2.357,48.0,528.0
2015-03-16,Memphis,USA,-90.049,35.1495,[-90.549 34.6495 -89.549 35.6495],2.548,0.991,3.367,2.216,2.239,1.434,3.137,2.258,48.0,532.0
2015-03-17,Memphis,USA,-90.049,35.1495,[-90.549 34.6495 -89.549 35.6495],2.34,1.144,3.393,2.353,2.246,1.39,3.123,2.262,72.0,521.0
2015-03-18,Memphis,USA,-90.049,35.1495,[-90.549 34.6495 -89.549 35.6495],2.34,1.144,3.393,2.353,2.116,1.231,3.024,2.167,72.0,522.0
2015-03-19,Memphis,USA,-90.049,35.1495,[-90.549 34.6495 -89.549 35.6495],2.34,1.144,3.393,2.353,2.134,1.224,3.022,2.188,72.0,514.0
2015-03-20,Memphis,USA,-90.049,35.1495,[-90.549 34.6495 -89.549 35.6495],2.34,1.144,3.393,2.353,2.109,1.236,3.011,2.174,72.0,521.0
2015-03-21,Memphis,USA,-90.049,35.1495,[-90.549 34.6495 -89.549 35.6495],2.34,1.144,3.393,2.353,2.106,1.244,3.019,2.175,72.0,515.0
2015-03-22,Memphis,USA,-90.049,35.1495,[-90.549 34.6495 -89.549 35.6495],2.337,1.162,3.335,2.268,2.168,1.357,3.131,2.229,96.0,528.0
2015-03-23,Memphis,USA,-90.049,35.1495,[-90.549 34.6495 -89.549 35.6495],2.34,1.223,3.393,2.365,2.215,1.362,3.179,2.287,75.0,528.0
2015-03-24,Memphis,USA,-90.049,35.1495,[-90.549 34.6495 -89.549 35.6495],2.34,1.303,3.335,2.401,2.375,1.533,3.215,2.355,101.0,531.0
2015-03-25,Memphis,USA,-90.049,35.1495,[-90.549 34.6495 -89.549 35.6495],2.121,1.282,2.964,2.263,2.324,1.473,3.188,2.326,80.0,533.0
2015-03-26,Memphis,USA,-90.049,35.1495,[-90.549 34.6495 -89.549 35.6495],2.121,1.282,2.964,2.263,2.292,1.414,3.124,2.298,80.0,517.0
2015-03-27,Memphis,USA,-90.049,35.1495,[-90.549 34.6495 -89.549 35.6495],2.121,1.282,2.964,2.263,2.246,1.339,3.069,2.238,80.0,519.0
2015-03-28,Memphis,USA,-90.049,35.1495,[-90.549 34.6495 -89.549 35.6495],2.305,1.728,2.736,2.277,2.297,1.444,3.007,2.293,117.0,518.0
2015-03-29,Memphis,USA,-90.049,35.1495,[-90.549 34.6495 -89.549 35.6495],2.305,1.728,2.736,2.277,2.268,1.478,3.109,2.338,117.0,562.0
2015-03-30,Memphis,USA,-90.049,35.1495,[-90.549 34.6495 -89.549 35.6495],2.305,1.728,2.736,2.277,2.231,1.413,2.942,2.218,117.0,559.0
2015-03-31,Memphis,USA,-90.049,35.1495,[-90.549 34.6495 -89.549 35.6495],2.305,1.728,2.736,2.277,2.225,1.533,3.013,2.267,117.0,564.0
2015-04-01,Memphis,USA,-90.049,35.1495,[-90.549 34.6495 -89.549 35.6495],2.305,1.812,2.612,2.2,2.223,1.541,3.02,2.255,93.0,568.0
2015-04-02,Memphis,USA,-90.049,35.1495,[-90.549 34.6495 -89.549 35.6495],2.285,1.74,2.612,2.181,2.115,1.456,2.891,2.188,95.0,560.0
2015-04-03,Memphis,USA,-90.049,35.1495,[-90.549 34.6495 -89.549 35.6495],2.285,1.74,2.612,2.181,2.088,1.406,2.822,2.127,95.0,563.0
2015-04-04,Memphis,USA,-90.049,35.1495,[-90.549 34.6495 -89.549 35.6495],2.288,1.803,2.612,2.172,2.089,1.44,2.814,2.126,124.0,553.0
2015-04-05,Memphis,USA,-90.049,35.1495,[-90.549 34.6495 -89.549 35.6495],2.288,1.803,2.612,2.172,2.026,1.385,2.727,2.069,124.0,563.0
2015-04-06,Memphis,USA,-90.049,35.1495,[-90.549 34.6495 -89.549 35.6495],2.288,1.899,2.612,2.202,1.952,1.359,2.621,1.972,100.0,558.0
2015-04-07,Memphis,USA,-90.049,35.1495,[-90.549 34.6495 -89.549 35.6495],2.305,2.001,2.612,2.252,1.906,1.358,2.616,1.953,94.0,567.0
2015-04-08,Memphis,USA,-90.049,35.1495,[-90.549 34.6495 -89.549 35.6495],2.288,2.001,2.577,2.202,1.81,1.286,2.415,1.808,69.0,563.0
2015-04-09,Memphis,USA,-90.049,35.1495,[-90.549 34.6495 -89.549 35.6495],2.265,1.7,2.523,2.098,1.809,1.249,2.359,1.786,93.0,567.0
2015-04-10,Memphis,USA,-90.049,35.1495,[-90.549 34.6495 -89.549 35.6495],2.265,1.7,2.523,2.089,1.782,1.233,2.312,1.75,96.0,569.0
2015-04-11,Memphis,USA,-90.049,35.1495,[-90.549 34.6495 -89.549 35.6495],2.265,1.7,2.523,2.089,1.82,1.267,2.316,1.782,96.0,552.0
2015-04-12,Memphis,USA,-90.049,35.1495,[-90.549 34.6495 -89.549 35.6495],2.05,1.472,2.408,1.946,1.75,1.174,2.28,1.737,59.0,552.0
2015-04-13,Memphis,USA,-90.049,35.1495,[-90.549 34.6495 -89.549 35.6495],2.324,1.803,2.691,2.234,1.83,1.231,2.337,1.796,84.0,552.0
2015-04-14,Memphis,USA,-90.049,35.1495,[-90.549 34.6495 -89.549 35.6495],2.324,1.803,2.691,2.234,1.808,1.226,2.31,1.777,84.0,561.0
2015-04-15,Memphis,USA,-90.049,35.1495,[-90.549 34.6495 -89.549 35.6495],2.324,1.803,2.691,2.234,1.787,1.225,2.302,1.775,84.0,523.0
2015-04-16,Memphis,USA,-90.049,35.1495,[-90.549 34.6495 -89.549 35.6495],2.288,1.7,2.691,2.208,1.821,1.286,2.377,1.822,105.0,529.0
2015-04-17,Memphis,USA,-90.049,35.1495,[-90.549 34.6495 -89.549 35.6495],2.288,1.803,2.691,2.222,1.86,1.324,2.47,1.887,103.0,531.0
2015-04-18,Memphis,USA,-90.049,35.1495,[-90.549 34.6495 -89.549 35.6495],2.288,1.7,2.691,2.2,1.893,1.4,2.473,1.915,112.0,521.0
2015-04-19,Memphis,USA,-90.049,35.1495,[-90.549 34.6495 -89.549 35.6495],2.313,1.55,2.779,2.23,1.867,1.386,2.468,1.898,83.0,522.0
2015-04-20,Memphis,USA,-90.049,35.1495,[-90.549 34.6495 -89.549 35.6495],2.153,1.55,2.607,2.117,1.876,1.394,2.483,1.922,107.0,511.0
2015-04-21,Memphis,USA,-90.049,35.1495,[-90.549 34.6495 -89.549 35.6495],2.153,1.55,2.607,2.117,1.934,1.401,2.592,1.979,107.0,519.0
2015-04-22,Memphis,USA,-90.049,35.1495,[-90.549 34.6495 -89.549 35.6495],2.493,1.803,3.051,2.43,2.002,1.43,2.646,2.026,141.0,516.0
2015-04-23,Memphis,USA,-90.049,35.1495,[-90.549 34.6495 -89.549 35.6495],2.484,1.786,3.018,2.397,1.968,1.441,2.587,2.009,172.0,527.0
2015-04-24,Memphis,USA,-90.049,35.1495,[-90.549 34.6495 -89.549 35.6495],2.502,1.918,3.051,2.48,1.972,1.466,2.6,2.036,165.0,522.0
2015-04-25,Memphis,USA,-90.049,35.1495,[-90.549 34.6495 -89.549 35.6495],2.493,1.868,3.044,2.474,2.015,1.488,2.586,2.039,187.0,525.0
2015-04-26,Memphis,USA,-90.049,35.1495,[-90.549 34.6495 -89.549 35.6495],2.502,1.892,3.051,2.505,2.0,1.497,2.57,2.04,206.0,532.0
2015-04-27,Memphis,USA,-90.049,35.1495,[-90.549 34.6495 -89.549 35.6495],2.493,1.868,3.051,2.481,2.07,1.532,2.644,2.072,229.0,516.0
2015-04-28,Memphis,USA,-90.049,35.1495,[-90.549 34.6495 -89.549 35.6495],2.375,1.803,3.017,2.416,2.0,1.468,2.612,2.02,204.0,516.0
2015-04-29,Memphis,USA,-90.049,35.1495,[-90.549 34.6495 -89.549 35.6495],2.153,1.764,2.953,2.305,1.978,1.494,2.656,2.04,234.0,508.0
2015-04-30,Memphis,USA,-90.049,35.1495,[-90.549 34.6495 -89.549 35.6495],2.153,1.764,2.953,2.305,2.057,1.542,2.714,2.089,234.0,556.0
2015-05-01,Memphis,USA,-90.049,35.1495,[-90.549 34.6495 -89.549 35.6495],2.153,1.764,2.961,2.321,2.035,1.428,2.671,2.049,213.0,557.0
2015-05-02,Memphis,USA,-90.049,35.1495,[-90.549 34.6495 -89.549 35.6495],2.151,1.751,2.953,2.298,1.957,1.392,2.568,1.985,228.0,562.0
2015-05-03,Memphis,USA,-90.049,35.1495,[-90.549 34.6495 -89.549 35.6495],2.153,1.754,2.945,2.305,1.936,1.384,2.582,1.982,232.0,562.0
2015-05-04,Memphis,USA,-90.049,35.1495,[-90.549 34.6495 -89.549 35.6495],2.153,1.754,2.945,2.305,1.912,1.352,2.579,1.974,232.0,553.0
2015-05-05,Memphis,USA,-90.049,35.1495,[-90.549 34.6495 -89.549 35.6495],2.24,1.78,3.017,2.392,1.915,1.339,2.588,1.985,210.0,557.0
2015-05-06,Memphis,USA,-90.049,35.1495,[-90.549 34.6495 -89.549 35.6495],2.299,1.843,3.006,2.404,1.925,1.408,2.589,1.975,234.0,550.0
2015-05-07,Memphis,USA,-90.049,35.1495,[-90.549 34.6495 -89.549 35.6495],2.052,1.764,2.573,2.207,1.865,1.385,2.435,1.921,200.0,557.0
2015-05-08,Memphis,USA,-90.049,35.1495,[-90.549 34.6495 -89.549 35.6495],2.057,1.786,2.612,2.228,1.905,1.385,2.473,1.944,172.0,554.0
2015-05-09,Memphis,USA,-90.049,35.1495,[-90.549 34.6495 -89.549 35.6495],2.052,1.764,2.612,2.202,1.916,1.395,2.485,1.954,161.0,566.0
2015-05-10,Memphis,USA,-90.049,35.1495,[-90.549 34.6495 -89.549 35.6495],2.052,1.78,2.629,2.214,1.946,1.464,2.495,1.998,143.0,566.0
2015-05-11,Memphis,USA,-90.049,35.1495,[-90.549 34.6495 -89.549 35.6495],2.046,1.764,2.504,2.154,1.959,1.473,2.458,1.983,124.0,567.0
2015-05-12,Memphis,USA,-90.049,35.1495,[-90.549 34.6495 -89.549 35.6495],2.052,1.764,2.527,2.173,1.956,1.474,2.459,1.983,118.0,602.0
2015-05-13,Memphis,USA,-90.049,35.1495,[-90.549 34.6495 -89.549 35.6495],2.052,1.764,2.527,2.173,1.966,1.494,2.479,1.99,118.0,587.0
2015-05-14,Memphis,USA,-90.049,35.1495,[-90.549 34.6495 -89.549 35.6495],2.333,1.862,2.783,2.343,1.956,1.391,2.431,1.93,88.0,595.0
2015-05-15,Memphis,USA,-90.049,35.1495,[-90.549 34.6495 -89.549 35.6495],2.215,1.86,2.693,2.306,1.896,1.399,2.373,1.894,116.0,584.0
2015-05-16,Memphis,USA,-90.049,35.1495,[-90.549 34.6495 -89.549 35.6495],2.215,1.86,2.693,2.305,1.923,1.436,2.377,1.909,117.0,590.0
2015-05-17,Memphis,USA,-90.049,35.1495,[-90.549 34.6495 -89.549 35.6495],2.229,1.862,2.694,2.349,1.929,1.438,2.367,1.91,102.0,553.0
2015-05-18,Memphis,USA,-90.049,35.1495,[-90.549 34.6495 -89.549 35.6495],2.229,1.898,2.721,2.366,1.983,1.465,2.41,1.97,89.0,561.0
2015-05-19,Memphis,USA,-90.049,35.1495,[-90.549 34.6495 -89.549 35.6495],2.229,1.898,2.714,2.371,1.969,1.513,2.397,1.972,109.0,564.0
2015-05-20,Memphis,USA,-90.049,35.1495,[-90.549 34.6495 -89.549 35.6495],2.229,1.898,2.714,2.37,1.939,1.453,2.391,1.941,107.0,553.0
2015-05-21,Memphis,USA,-90.049,35.1495,[-90.549 34.6495 -89.549 35.6495],2.195,1.779,2.652,2.318,1.848,1.331,2.324,1.855,83.0,556.0
2015-05-22,Memphis,USA,-90.049,35.1495,[-90.549 34.6495 -89.549 35.6495],2.195,1.779,2.652,2.297,1.858,1.32,2.325,1.841,92.0,546.0
2015-05-23,Memphis,USA,-90.049,35.1495,[-90.549 34.6495 -89.549 35.6495],2.19,1.753,2.652,2.297,1.875,1.321,2.318,1.835,88.0,552.0
2015-05-24,Memphis,USA,-90.049,35.1495,[-90.549 34.6495 -89.549 35.6495],2.195,1.811,2.652,2.334,1.827,1.352,2.345,1.859,82.0,549.0
2015-05-25,Memphis,USA,-90.049,35.1495,[-90.549 34.6495 -89.549 35.6495],2.173,1.72,2.65,2.271,1.783,1.257,2.325,1.819,82.0,556.0
2015-05-26,Memphis,USA,-90.049,35.1495,[-90.549 34.6495 -89.549 35.6495],2.173,1.72,2.65,2.271,1.798,1.247,2.375,1.841,82.0,552.0
2015-05-27,Memphis,USA,-90.049,35.1495,[-90.549 34.6495 -89.549 35.6495],2.057,1.716,2.644,2.187,1.825,1.245,2.379,1.845,73.0,524.0
2015-05-28,Memphis,USA,-90.049,35.1495,[-90.549 34.6495 -89.549 35.6495],2.087,1.716,2.644,2.203,1.842,1.288,2.424,1.877,90.0,530.0
2015-05-29,Memphis,USA,-90.049,35.1495,[-90.549 34.6495 -89.549 35.6495],2.195,1.779,2.69,2.304,1.901,1.353,2.461,1.954,111.0,514.0
2015-05-30,Memphis,USA,-90.049,35.1495,[-90.549 34.6495 -89.549 35.6495],2.265,1.813,2.724,2.36,1.979,1.395,2.611,2.007,83.0,522.0
2015-05-31,Memphis,USA,-90.049,35.1495,[-90.549 34.6495 -89.549 35.6495],1.94,1.497,2.414,2.062,1.978,1.405,2.647,2.022,115.0,518.0
2015-06-01,Memphis,USA,-90.049,35.1495,[-90.549 34.6495 -89.549 35.6495],1.94,1.497,2.414,2.06,2.143,1.494,2.739,2.125,117.0,565.0
2015-06-02,Memphis,USA,-90.049,35.1495,[-90.549 34.6495 -89.549 35.6495],2.005,1.753,2.597,2.138,2.097,1.499,2.695,2.09,149.0,564.0
2015-06-03,Memphis,USA,-90.049,35.1495,[-90.549 34.6495 -89.549 35.6495],2.014,1.736,2.69,2.152,2.173,1.504,2.798,2.133,157.0,571.0
2015-06-04,Memphis,USA,-90.049,35.1495,[-90.549 34.6495 -89.549 35.6495],2.111,1.799,2.908,2.262,2.167,1.487,2.87,2.15,182.0,571.0
2015-06-05,Memphis,USA,-90.049,35.1495,[-90.549 34.6495 -89.549 35.6495],2.129,1.807,2.908,2.27,2.185,1.54,2.83,2.153,204.0,560.0
2015-06-06,Memphis,USA,-90.049,35.1495,[-90.549 34.6495 -89.549 35.6495],2.135,1.807,2.908,2.278,2.175,1.565,2.839,2.168,195.0,563.0
2015-06-07,Memphis,USA,-90.049,35.1495,[-90.549 34.6495 -89.549 35.6495],1.987,1.415,2.69,2.088,2.057,1.326,2.748,2.05,219.0,555.0
2015-06-08,Memphis,USA,-90.049,35.1495,[-90.549 34.6495 -89.549 35.6495],1.987,1.415,2.69,2.088,2.026,1.357,2.748,2.043,219.0,562.0
2015-06-09,Memphis,USA,-90.049,35.1495,[-90.549 34.6495 -89.549 35.6495],1.86,1.234,2.43,1.965,2.003,1.331,2.669,2.03,244.0,560.0
2015-06-10,Memphis,USA,-90.049,35.1495,[-90.549 34.6495 -89.549 35.6495],1.86,1.224,2.43,1.964,2.033,1.33,2.654,2.036,278.0,571.0
2015-06-11,Memphis,USA,-90.049,35.1495,[-90.549 34.6495 -89.549 35.6495],1.86,1.222,2.43,1.967,2.022,1.351,2.659,2.046,270.0,568.0
2015-06-12,Memphis,USA,-90.049,35.1495,[-90.549 34.6495 -89.549 35.6495],1.851,1.222,2.414,1.954,2.083,1.379,2.7,2.069,257.0,567.0
2015-06-13,Memphis,USA,-90.049,35.1495,[-90.549 34.6495 -89.549 35.6495],1.812,1.162,2.296,1.881,2.05,1.365,2.647,2.045,251.0,598.0
2015-06-14,Memphis,USA,-90.049,35.1495,[-90.549 34.6495 -89.549 35.6495],1.812,1.15,2.322,1.881,1.998,1.304,2.621,2.0,261.0,581.0
2015-06-15,Memphis,USA,-90.049,35.1495,[-90.549 34.6495 -89.549 35.6495],1.812,1.095,2.432,1.913,1.907,1.214,2.64,1.964,228.0,585.0
2015-06-16,Memphis,USA,-90.049,35.1495,[-90.549 34.6495 -89.549 35.6495],1.809,1.098,2.43,1.863,1.84,1.177,2.519,1.893,261.0,579.0
2015-06-17,Memphis,USA,-90.049,35.1495,[-90.549 34.6495 -89.549 35.6495],1.61,1.072,2.296,1.765,1.815,1.171,2.52,1.886,232.0,588.0
2015-06-18,Memphis,USA,-90.049,35.1495,[-90.549 34.6495 -89.549 35.6495],1.47,1.067,2.248,1.712,1.719,1.14,2.439,1.826,204.0,549.0
2015-06-19,Memphis,USA,-90.049,35.1495,[-90.549 34.6495 -89.549 35.6495],1.396,1.049,2.083,1.607,1.75,1.185,2.428,1.835,199.0,558.0
2015-06-20,Memphis,USA,-90.049,35.1495,[-90.549 34.6495 -89.549 35.6495],1.349,1.037,2.053,1.562,1.788,1.198,2.475,1.868,201.0,557.0
2015-06-21,Memphis,USA,-90.049,35.1495,[-90.549 34.6495 -89.549 35.6495],1.357,1.049,2.066,1.585,1.876,1.238,2.538,1.914,224.0,546.0
2015-06-22,Memphis,USA,-90.049,35.1495,[-90.549 34.6495 -89.549 35.6495],1.47,1.095,2.083,1.659,1.971,1.383,2.554,1.994,200.0,548.0
2015-06-23,Memphis,USA,-90.049,35.1495,[-90.549 34.6495 -89.549 35.6495],1.734,1.117,2.323,1.784,1.987,1.343,2.567,1.987,220.0,539.0
2015-06-24,Memphis,USA,-90.049,35.1495,[-90.549 34.6495 -89.549 35.6495],1.932,1.261,2.407,1.907,1.993,1.384,2.558,2.005,188.0,545.0
2015-06-25,Memphis,USA,-90.049,35.1495,[-90.549 34.6495 -89.549 35.6495],1.863,1.219,2.387,1.845,1.983,1.373,2.559,1.997,162.0,542.0
2015-06-26,Memphis,USA,-90.049,35.1495,[-90.549 34.6495 -89.549 35.6495],1.863,1.219,2.387,1.845,1.972,1.353,2.528,1.985,162.0,553.0
2015-06-27,Memphis,USA,-90.049,35.1495,[-90.549 34.6495 -89.549 35.6495],1.863,1.219,2.387,1.847,1.914,1.312,2.471,1.936,158.0,549.0
2015-06-28,Memphis,USA,-90.049,35.1495,[-90.549 34.6495 -89.549 35.6495],1.863,1.219,2.387,1.852,1.925,1.277,2.52,1.94,150.0,523.0